Regional Weather Roundup
Issued by NWS

Home | Current Version | Previous Version | Graphics & Text | Print | Product List | Glossary On
Versions: 1 2 3 4 5 6 7 8 9 10 11 12 13 14 15 16 17 18 19 20 21 22 23 24 25 26 27 28 29 30 31 32 33 34 35 36 37 38 39 40 41 42 43 44 45 46 47 48 49 50
748
ASUS45 KSLC 231110
RWRUT

UTAH REGIONAL WEATHER ROUNDUP
NATIONAL WEATHER SERVICE SALT LAKE CITY UT
500 AM MDT WED MAY 23 2018

UTZ001>011-023>025-231200-

NORTHERN UTAH

CITY           SKY/WX    TMP DP  RH WIND       PRES   REMARKS
BRIGHAM CITY   MOCLDY    55  45  69 CALM      29.94S
HILL AFB       PTCLDY    50  42  74 SE12      29.95R
LOGAN          CLOUDY    53  47  79 CALM      29.95S
OGDEN          PTCLDY    50  42  74 S6        29.94R
SALT LAKE CITY PTCLDY    55  46  71 SE12      29.93S
TOOELE VALLEY  CLEAR     50  43  76 SW7       29.95R
WENDOVER       PTCLDY    52  45  77 E6        29.92
HEBER CITY       N/A     36  36 100 CALM      30.01R
WEST JORDAN    CLEAR     48  45  87 SE8       29.96R

$$

UTZ011>015-024>027-231200-

CENTRAL/NORTHEAST UTAH

CITY           SKY/WX    TMP DP  RH WIND       PRES   REMARKS
PROVO AIRPORT  CLEAR     48  43  82 S5        29.98R
MOAB/CANYONLAN CLEAR     51  42  71 CALM      29.93R
DELTA          CLEAR     43  41  93 NE3       29.97R
PRICE          MOCLDY    50  35  56 CALM      29.99R
ROOSEVELT      PTCLDY    43  36  75 W3        30.03R
VERNAL         CLEAR     44  37  76 CALM      30.02R

$$

UTZ013>016-019>022-027-231200-

SOUTHERN UTAH

CITY           SKY/WX    TMP DP  RH WIND       PRES   REMARKS
BRYCE CANYON   PTCLDY    34  33  96 W5        30.11R WCI  30
CEDAR CITY     PTCLDY    48  34  58 CALM      29.99R
MILFORD        PTCLDY    40  40 100 SW3       29.97R
ST GEORGE      CLOUDY    65  40  39 E6        29.90R
HANKSVILLE     CLEAR     50  30  46 CALM      29.97R
BLANDING         N/A     47  23  37 NE8       30.09R

$$

REGIONAL REPORTS     COLORADO/ARIZONA

CITY           SKY/WX    TMP DP  RH WIND       PRES   REMARKS
CRAIG, CO      CLEAR     35  34  96 CALM      30.06R
GRAND JUNCTION CLEAR     47  42  83 E5        29.97R
RIFLE, CO      CLEAR     42  38  85 CALM      30.03S
MONTROSE, CO   PTCLDY    41  36  82 SE7       30.04R
CORTEZ, CO     CLEAR     37  27  67 E5        30.05R WCI  33
COLORADO CITY    N/A     43  39  87 S3        30.01S
PAGE, AZ       CLEAR     57  33  40 SE3       29.96R
GRAND CANYON   CLEAR     30  22  72 CALM      30.09R
KINGMAN, AZ    CLEAR     57  31  37 SE10      29.91R
FLAGSTAFF, AZ  CLEAR     34  18  52 CALM      30.11R

$$

REGIONAL REPORTS    NEVADA/IDAHO/WYOMING

CITY           SKY/WX    TMP DP  RH WIND       PRES   REMARKS
LAS VEGAS, NV  PTCLDY    71  35  26 CALM      29.81R
ELY, NY        CLOUDY    47  43  86 S8        30.01R
ELKO, NV       MOCLDY    47  43  86 CALM      29.94S
POCATELLO, ID  CLOUDY    55  49  80 NW3       29.92S
BURLEY, ID     PTCLDY    49  45  86 SE3       29.88S
FORT BRIDGER,    N/A     39  38  93 S6        30.08R
EVANSTON, WY   PTCLDY    43  39  86 S3        30.04S
ROCK SPRINGS,  CLEAR     41  39  93 S5        30.05R
KEMMERER, WY   PTCLDY    37  36  93 N6        30.05S WCI  33

$$




USA.gov is the U.S. government's official web portal to all federal, state and local government web resources and services.